Location: Marsån
(66.4167°N, 22.2833°E)
Time: 10:45:53
(UTC+00:00)

Cosmos 2228 Rocket - Pass Details

Date: 24 February 2024
Orbit: 614 x 650 km, 82.5° (Epoch: 15 April)

Event Time Altitude Azimuth Distance (km) Brightness Sun altitude
Rises 18:54:01 0° 336° (NNW) 2,990 7.4 -21.2°
Reaches altitude 10° 18:56:34 10° 348° (NNW) 2,074 6.2 -21.5°
Maximum altitude 19:00:33 28° 48° (NE) 1,234 4.4 -21.8°
Enters shadow 19:00:35 28° 48° (NE) 1,234 4.4 -21.8°
